Regional Weather Roundup
Issued by NWS

Home | Current Version | Previous Version | Graphics & Text | Print | Product List | Glossary On
Versions: 1 2 3 4 5 6 7 8 9 10 11 12 13 14 15 16 17 18 19 20 21 22 23 24 25 26 27 28 29 30 31 32 33 34 35 36 37 38 39 40 41 42 43 44 45 46 47 48 49 50
000
ASUS43 KFSD 071710
RWRSD

WEATHER ROUNDUP FOR SOUTH DAKOTA
NATIONAL WEATHER SERVICE SIOUX FALLS SD
1200 PM CDT TUE JUL 07 2015

NOTE: "FAIR" INDICATES FEW OR NO CLOUDS BELOW 12,000 FEET WITH NO
SIGNIFICANT WEATHER AND/OR OBSTRUCTIONS TO VISIBILITY.


SDZ001>005-009-010-012>017-071800-
NORTHWEST AND NORTH CENTRAL SOUTH DAKOTA

CITY           SKY/WX    TMP DP  RH WIND       PRES   REMARKS
BUFFALO          N/A     75  56  51 SE15G21   30.02F
FAITH            N/A     70  56  61 S18G26    30.11F
MOBRIDGE       SUNNY     70  54  56 SE14      30.13F
$$

SDZ012>016-024>037-041>051-057-063-072>074-071800-
SOUTHWEST AND SOUTH CENTRAL SOUTH DAKOTA

CITY           SKY/WX    TMP DP  RH WIND       PRES   REMARKS
RAPID CTY ARPT MOSUNNY   71  59  65 S18       30.12F
PIERRE         SUNNY     69  56  62 SE15      30.15F
CUSTER         CLOUDY    62  52  69 S7        30.21F HAZE
ELLSWORTH AFB  PTSUNNY   70  58  65 S16       30.10F
PHILIP         CLOUDY    73  57  57 SE13      30.13S
PINE RIDGE     CLOUDY    68  55  63 S17G23    30.16F
SPEARFISH      FAIR      72  59  64 NE9       30.12S
WINNER         FAIR      71  56  58 SE14      30.18F
$$

SDZ004>011-016>023-039-040-071800-
NORTHEAST SOUTH DAKOTA

CITY           SKY/WX    TMP DP  RH WIND       PRES   REMARKS
ABERDEEN       SUNNY     66  47  50 SE5       30.19F
WATERTOWN      SUNNY     63  44  50 E6        30.21S
BROOKINGS      SUNNY     61  45  55 SE6       30.23S
SISSETON         N/A     65  42  43 SE7       30.19F
$$

SDZ017-020-022-023-036>040-048>070-071800-
SOUTHEAST SOUTH DAKOTA

CITY           SKY/WX    TMP DP  RH WIND       PRES   REMARKS
SIOUX FALLS    PTSUNNY   64  47  53 NE13      30.21S
HURON          SUNNY     66  48  52 SE7       30.20F
MITCHELL         N/A     68  49  50 VRB3      30.21F
YANKTON        MOSUNNY   63  48  59 NE6       30.20S
$$

ABBREVIATIONS USED IN REMARKS
   TC - TEMPERATURE IN CELSIUS
  WCI - WIND CHILL INDEX
   HX - HEAT INDEX
  VSB - VISIBILITY




USA.gov is the U.S. government's official web portal to all federal, state and local government web resources and services.